This is the latest recevied weather packets stored in our database for station/object AC4AG. If no packets are shown the sender has not sent any weather packets the latest 10 day(s).
| Time | Temp. | Humidity | Pressure | Rain* | Wind** | Luminosity | Snow |
|---|---|---|---|---|---|---|---|
| 1777233827 | 22.22° C | 56% | 1013.4 hPa | 0 mm | - | 704 W/m² | - |
| 1777233524 | 22.22° C | 57% | 1013.6 hPa | 0 mm | - | 725 W/m² | - |
| 1777233222 | 22.78° C | 57% | 1013.5 hPa | 0 mm | - | 737 W/m² | - |
| 1777232917 | 22.22° C | 55% | 1013.6 hPa | 0 mm | - | 751 W/m² | - |
| 1777232616 | 22.22° C | 55% | 1013.8 hPa | 0 mm | - | 762 W/m² | - |
| 1777232314 | 22.78° C | 53% | 1013.8 hPa | 0 mm | - | 773 W/m² | - |
| 1777232010 | 21.67° C | 57% | 1013.9 hPa | 0 mm | - | 795 W/m² | - |
| 1777231708 | 21.67° C | 57% | 1013.6 hPa | 0 mm | - | 792 W/m² | - |
| 1777231404 | 22.78° C | 57% | 1014 hPa | 0 mm | - | 792 W/m² | - |
| 1777231100 | 22.22° C | 60% | 1014 hPa | 0 mm | - | 795 W/m² | - |
| 1777230796 | 21.67° C | 59% | 1014 hPa | 0 mm | - | 814 W/m² | - |
| 1777230491 | 21.11° C | 62% | 1014.1 hPa | 0 mm | - | 830 W/m² | - |
| 1777230188 | 21.11° C | 62% | 1014 hPa | 0 mm | - | 836 W/m² | - |
| 1777229884 | 21.67° C | 62% | 1014.1 hPa | 0 mm | - | 840 W/m² | - |
| 1777229581 | 21.11° C | 61% | 1014.1 hPa | 0 mm | - | 861 W/m² | - |
| 1777229278 | 21.67° C | 61% | 1014.2 hPa | 0 mm | - | 830 W/m² | - |
| 1777228975 | 21.67° C | 63% | 1014.3 hPa | 0 mm | - | 863 W/m² | - |
| 1777228671 | 21.11° C | 63% | 1014.3 hPa | 0 mm | - | 865 W/m² | - |
| 1777228367 | 21.11° C | 65% | 1014.3 hPa | 0 mm | - | 876 W/m² | - |
| 1777228063 | 21.11° C | 65% | 1014.3 hPa | 0 mm | - | 875 W/m² | - |
| 1777227762 | 21.11° C | 63% | 1014.6 hPa | 0 mm | - | 878 W/m² | - |
| 1777227458 | 20.56° C | 66% | 1014.6 hPa | 0 mm | - | 891 W/m² | - |
| 1777227154 | 20° C | 65% | 1014.7 hPa | 0 mm | - | 889 W/m² | - |
| 1777226851 | 20.56° C | 65% | 1014.9 hPa | 0 mm | - | 892 W/m² | - |
| 1777226550 | 21.11° C | 64% | 1014.9 hPa | 0 mm | - | 900 W/m² | - |
* Rain latest hour (hover to see other rain measurements)
** Current wind speed in m/s (hover to see current wind gust speed)